Weather observations for the past three days for
Clinton, MO
Imperial (Metric)
Date Time (cdt) Wind (mph) Vis. (mi.) Weather Sky Cond. Temperature (ºF) Relative Humidity Wind Chill (°F) Heat Index (°F) Pressure Precipitation (in)
Air Dwpt 6 hour altimeter (in) sea level (mb) 1 hr 3 hr 6 hr
Max. Min.
17 18:35 S 14 9.00 Fair CLR 89.6 71.6 55% 96 29.81 0.0
17 18:15 S 9 G 18 9.00 Fair CLR 89.6 71.6 55% 96 29.8 0.0
17 17:55 S 12 G 18 9.00 Fair CLR 89.6 71.6 55% 96 29.81 0.0
17 17:35 S 15 G 21 10.00 Fair CLR 89.6 71.6 55% 96 29.81 0.0
17 17:15 S 12 G 18 9.00 Fair CLR 91.4 71.6 52% 99 29.81 0.0
17 16:55 S 14 9.00 Fair CLR 91.4 71.6 52% 99 29.82 0.0
17 16:35 S 10 G 18 9.00 A Few Clouds FEW044 FEW050 91.4 73.4 56% 100 29.82 0.0
17 16:15 S 10 G 20 9.00 Fair CLR 89.6 73.4 59% 98 29.83 0.0
17 15:55 S 10 9.00 Fair CLR 89.6 73.4 59% 98 29.83 0.0
17 15:35 S 8 9.00 Fair CLR 87.8 73.4 62% 96 29.84 0.0
17 15:15 SE 8 G 17 9.00 Partly Cloudy FEW048 SCT060 84.2 71.6 66% 90 29.85 0.0
17 14:55 S 16 G 26 9.00 Thunderstorm in Vicinity SCT047 SCT055 SCT065 89.6 71.6 55% 96 29.85 0.0
17 14:35 S 13 9.00 Thunderstorm in Vicinity FEW050 FEW060 91.4 71.6 52% 99 29.85 0.0
17 14:15 S 9 9.00 A Few Clouds FEW050 91.4 69.8 49% 97 29.86 0.0
17 13:55 Vrbl 7 9.00 Fair CLR 91.4 69.8 49% 97 29.86 0.0
17 13:35 S 13 9.00 Fair CLR 89.6 69.8 52% 95 29.87 0.0
17 13:15 S 8 G 15 9.00 A Few Clouds FEW055 FEW065 89.6 71.6 55% 96 29.88 0.0
17 12:55 S 12 G 18 10.00 A Few Clouds FEW050 FEW055 89.6 69.8 52% 95 29.88 0.0
17 12:35 S 8 G 15 9.00 Fair CLR 89.6 69.8 52% 95 29.88 0.0
17 12:15 S 7 G 14 9.00 A Few Clouds FEW047 FEW055 87.8 71.6 59% 94 29.88 0.0
17 11:55 S 10 9.00 Fair CLR 87.8 69.8 55% 93 29.88 0.0
17 11:35 SW 10 9.00 Fair CLR 87.8 71.6 59% 94 29.89 0.0
17 11:15 SW 13 8.00 Fair CLR 87.8 71.6 59% 94 29.9 0.0
17 10:55 S 13 9.00 A Few Clouds FEW040 87.8 71.6 59% 94 29.9 0.0
17 10:35 S 10 10.00 Fair CLR 86 71.6 62% 92 29.9 0.0
17 10:15 S 12 8.00 Fair CLR 86 71.6 62% 92 29.9 0.0
17 09:55 S 14 9.00 Fair CLR 86 71.6 62% 92 29.9 0.0
17 09:35 S 9 G 16 10.00 Fair CLR 84.2 71.6 66% 90 29.9 0.0
17 09:15 SW 9 9.00 Fair CLR 84.2 71.6 66% 90 29.91 0.0
17 08:55 S 10 G 16 9.00 Fair CLR 82.4 71.6 70% 87 29.91 0.0
17 08:35 S 10 G 18 9.00 Fair CLR 82.4 71.6 70% 87 29.91 0.0
17 08:15 S 8 G 15 9.00 Fair CLR 80.6 71.6 74% 85 29.91 0.0
17 07:55 S 8 G 14 9.00 Fair CLR 78.8 69.8 74% 81 29.91 0.0
17 07:35 S 8 9.00 Fair CLR 78.8 69.8 74% 81 29.9 0.0
17 07:15 S 8 9.00 Fair CLR 77 69.8 79% 79 29.89 0.0
17 06:55 S 7 9.00 Fair CLR 77 69.8 79% 79 29.88 0.0
17 06:35 S 7 9.00 Fair CLR 77 69.8 79% 79 29.88 0.0
17 06:15 S 7 9.00 Fair CLR 75.2 68 78% 76 29.87 0.0
17 05:55 S 7 9.00 Fair CLR 75.2 68 78% 76 29.86 0.0
17 05:35 S 9 10.00 Fair CLR 77 68 74% 79 29.85 0.0
17 05:15 S 9 10.00 Fair CLR 77 68 74% 79 29.84 0.0
17 04:55 S 9 10.00 Fair CLR 77 68 74% 79 29.84 0.0
17 04:35 S 8 9.00 Fair CLR 77 69.8 79% 79 29.84 0.0
17 04:15 S 10 9.00 Fair CLR 77 69.8 79% 79 29.84 0.0
17 03:55 S 12 9.00 Fair CLR 77 69.8 79% 79 29.84 0.0
17 03:35 S 10 9.00 Fair CLR 77 69.8 79% 79 29.84 0.0
17 03:15 S 9 10.00 Fair CLR 77 69.8 79% 79 29.85 0.0
17 02:55 S 9 9.00 Fair CLR 77 69.8 79% 79 29.85 0.0
17 02:35 S 8 8.00 Fair CLR 77 71.6 83% 78 29.86 0.0
17 02:15 S 7 9.00 Fair CLR 77 71.6 83% 78 29.86 0.0
17 01:55 S 7 9.00 Fair CLR 75.2 71.6 89% 75 29.87 0.0
17 01:35 S 6 8.00 Fair CLR 75.2 71.6 89% 75 29.87 0.0
17 01:15 S 6 9.00 Fair CLR 75.2 71.6 89% 75 29.87 0.0
17 00:55 S 5 9.00 Fair CLR 75.2 71.6 89% 75 29.88 0.0
17 00:35 Calm 9.00 Fair CLR 77 71.6 83% 78 29.88 0.0
17 00:15 Calm 9.00 Fair CLR 77 71.6 83% 78 29.88 0.0
16 23:55 Calm 9.00 Fair CLR 77 71.6 83% 78 29.89 0.0
16 23:35 Calm 9.00 Fair CLR 77 71.6 83% 78 29.88 0.0
16 23:15 S 5 9.00 Fair CLR 77 71.6 83% 78 29.88 0.0
16 22:55 S 7 9.00 Fair CLR 78.8 71.6 79% 82 29.88 0.0
16 22:35 S 6 9.00 Fair CLR 78.8 71.6 79% 82 29.87 0.0
16 22:15 S 5 9.00 Fair CLR 78.8 71.6 79% 82 29.87 0.0
16 21:55 S 3 9.00 Fair CLR 78.8 71.6 79% 82 29.87 0.0
16 21:35 S 6 9.00 Fair CLR 78.8 71.6 79% 82 29.86 0.0
16 21:15 SE 5 9.00 Fair CLR 80.6 71.6 74% 85 29.85 0.0
16 20:55 S 7 9.00 Fair CLR 80.6 71.6 74% 85 29.84 0.0
16 20:35 S 7 9.00 Fair CLR 82.4 71.6 70% 87 29.84 0.0
16 20:15 S 7 9.00 Fair CLR 84.2 71.6 66% 90 29.84 0.0
16 19:55 S 6 9.00 Fair CLR 84.2 73.4 70% 91 29.83 0.0
16 19:35 S 6 9.00 Fair CLR 86 73.4 66% 93 29.83 0.0
16 19:15 S 7 9.00 Fair CLR 87.8 71.6 59% 94 29.83 0.0
16 18:55 S 5 9.00 Fair CLR 89.6 71.6 55% 96 29.82 0.0
16 18:35 S 5 9.00 Fair CLR 89.6 71.6 55% 96 29.82 0.0
16 18:15 S 8 10.00 Fair CLR 89.6 71.6 55% 96 29.82 0.0
16 17:55 S 9 10.00 Fair CLR 89.6 69.8 52% 95 29.81 0.0
16 17:35 S 8 9.00 Fair CLR 89.6 69.8 52% 95 29.81 0.0
16 17:15 S 10 9.00 Fair CLR 89.6 69.8 52% 95 29.82 0.0
16 16:55 S 9 9.00 Fair CLR 89.6 69.8 52% 95 29.82 0.0
16 16:35 S 10 9.00 Fair CLR 89.6 69.8 52% 95 29.82 0.0
16 16:15 S 8 10.00 Fair CLR 89.6 69.8 52% 95 29.82 0.0
16 15:55 S 10 G 17 9.00 Fair CLR 87.8 68 52% 91 29.82 0.0
16 15:35 S 9 G 18 9.00 Fair CLR 89.6 69.8 52% 95 29.83 0.0
16 15:15 S 13 9.00 Fair CLR 89.6 69.8 52% 95 29.83 0.0
16 14:55 S 10 G 23 9.00 Fair CLR 87.8 68 52% 91 29.83 0.0
16 14:35 S 15 G 23 9.00 Fair CLR 87.8 68 52% 91 29.83 0.0
16 14:15 S 15 G 22 9.00 Fair CLR 87.8 69.8 55% 93 29.83 0.0
16 13:55 S 16 9.00 Fair CLR 87.8 69.8 55% 93 29.84 0.0
16 13:35 S 13 9.00 Fair CLR 87.8 71.6 59% 94 29.84 0.0
16 13:15 S 13 G 18 9.00 Fair CLR 87.8 71.6 59% 94 29.86 0.0
16 12:55 S 12 9.00 Fair CLR 86 71.6 62% 92 29.86 0.0
16 12:35 S 13 G 21 8.00 Fair CLR 86 71.6 62% 92 29.87 0.0
16 12:15 SW 12 G 22 9.00 A Few Clouds FEW042 84.2 69.8 62% 88 29.89 0.0
16 11:55 SW 15 9.00 A Few Clouds FEW043 86 71.6 62% 92 29.89 0.0
16 11:35 SW 15 G 24 9.00 Fair CLR 86 71.6 62% 92 29.89 0.0
16 11:15 SW 14 G 21 9.00 Fair CLR 86 71.6 62% 92 29.9 0.0
16 10:55 SW 13 G 22 9.00 Fair CLR 84.2 71.6 66% 90 29.9 0.0
16 10:35 S 13 G 22 9.00 Fair CLR 84.2 71.6 66% 90 29.9 0.0
16 10:15 SW 15 9.00 Fair CLR 84.2 71.6 66% 90 29.9 0.0
16 09:55 SW 14 8.00 Fair CLR 84.2 71.6 66% 90 29.91 0.0
16 09:35 SW 13 8.00 Fair CLR 82.4 71.6 70% 87 29.91 0.0
16 08:55 SW 10 9.00 Fair CLR 80.6 71.6 74% 85 29.9 0.0
16 08:35 SW 8 9.00 Fair CLR 80.6 71.6 74% 85 29.9 0.0
16 08:15 S 9 9.00 Fair CLR 78.8 71.6 79% 82 29.9 0.0
16 07:55 S 6 9.00 Fair CLR 78.8 71.6 79% 82 29.9 0.0
16 07:35 S 5 8.00 Fair CLR 77 71.6 83% 78 29.9 0.0
16 07:15 SW 7 9.00 Fair CLR 77 69.8 79% 79 29.89 0.0
16 06:55 SW 5 9.00 Fair CLR 75.2 69.8 83% 75 29.89 0.0
16 06:35 Calm 9.00 Fair CLR 75.2 69.8 83% 75 29.88 0.0
16 06:15 Calm 8.00 Fair CLR 73.4 69.8 89% 29.89 0.0
16 05:55 Calm 9.00 Fair CLR 75.2 69.8 83% 75 29.88 0.0
16 05:35 Calm 10.00 Fair CLR 75.2 69.8 83% 75 29.87 0.0
16 05:15 S 8 10.00 Fair CLR 75.2 69.8 83% 75 29.86 0.0
16 04:55 S 8 9.00 Fair CLR 75.2 69.8 83% 75 29.85 0.0
16 04:35 S 9 9.00 Fair CLR 75.2 71.6 89% 75 29.84 0.0
16 04:15 S 9 9.00 Fair CLR 77 71.6 83% 78 29.84 0.0
16 03:55 S 7 10.00 Fair CLR 77 71.6 83% 78 29.84 0.0
16 03:35 S 7 9.00 Fair CLR 77 71.6 83% 78 29.84 0.0
16 03:15 S 8 10.00 Fair CLR 77 71.6 83% 78 29.84 0.0
16 02:55 S 8 10.00 Fair CLR 78.8 71.6 79% 82 29.85 0.0
16 02:35 S 7 10.00 Fair CLR 78.8 71.6 79% 82 29.85 0.0
16 02:15 S 8 9.00 Fair CLR 78.8 71.6 79% 82 29.85 0.0
16 01:55 S 9 10.00 Fair CLR 78.8 73.4 84% 82 29.85 0.0
16 01:35 S 9 9.00 Fair CLR 80.6 73.4 79% 85 29.86 0.0
16 01:15 S 9 10.00 Fair CLR 80.6 73.4 79% 85 29.86 0.0
16 00:55 S 9 10.00 Fair CLR 80.6 73.4 79% 85 29.86 0.0
16 00:35 S 10 9.00 Fair CLR 80.6 73.4 79% 85 29.86 0.0
16 00:15 S 12 10.00 Fair CLR 80.6 73.4 79% 85 29.86 0.0
15 23:55 S 12 9.00 Fair CLR 80.6 73.4 79% 85 29.86 0.0
15 23:35 S 12 10.00 Fair CLR 82.4 73.4 74% 88 29.86 0.0
15 23:15 SE 10 10.00 Partly Cloudy SCT050 82.4 71.6 70% 87 29.87 0.0
15 22:55 S 9 10.00 Partly Cloudy SCT050 82.4 71.6 70% 87 29.86 0.0
15 22:35 SE 10 10.00 Fair CLR 82.4 71.6 70% 87 29.86 0.0
15 22:15 SE 8 10.00 A Few Clouds FEW055 80.6 71.6 74% 85 29.86 0.0
15 21:55 SE 6 10.00 A Few Clouds FEW055 80.6 71.6 74% 85 29.86 0.0
15 21:35 SE 6 10.00 Fair CLR 80.6 71.6 74% 85 29.85 0.0
15 21:15 SE 6 10.00 Fair CLR 82.4 73.4 74% 88 29.85 0.0
15 20:55 SE 6 9.00 Fair CLR 82.4 73.4 74% 88 29.85 0.0
15 20:35 SE 7 9.00 Fair CLR 82.4 73.4 74% 88 29.85 0.0
15 20:15 SE 6 9.00 A Few Clouds FEW050 84.2 73.4 70% 91 29.85 0.0
15 19:55 SE 6 9.00 Fair CLR 86 73.4 66% 93 29.85 0.0
15 19:35 SE 8 9.00 Fair CLR 86 73.4 66% 93 29.85 0.0
15 19:15 SE 8 9.00 Fair CLR 87.8 73.4 62% 96 29.85 0.0
15 18:55 SE 8 9.00 Fair CLR 87.8 73.4 62% 96 29.85 0.0
15 18:35 SE 9 9.00 Fair CLR 87.8 73.4 62% 96 29.86 0.0
15 18:15 SE 9 9.00 Fair CLR 87.8 73.4 62% 96 29.86 0.0
15 17:55 SE 9 G 16 9.00 Fair CLR 89.6 73.4 59% 98 29.87 0.0
15 17:35 SE 14 10.00 A Few Clouds FEW050 FEW055 89.6 71.6 55% 96 29.87 0.0
15 17:15 SE 12 G 18 9.00 Partly Cloudy SCT049 89.6 71.6 55% 96 29.88 0.0
15 16:55 SE 14 10.00 Fair CLR 89.6 71.6 55% 96 29.88 0.0
15 16:35 SE 12 G 20 9.00 A Few Clouds FEW045 89.6 73.4 59% 98 29.89 0.0
15 16:15 SE 14 9.00 Fair CLR 89.6 73.4 59% 98 29.89 0.0
15 15:55 S 16 9.00 Fair CLR 89.6 71.6 55% 96 29.9 0.0
15 15:35 SE 14 9.00 A Few Clouds FEW040 87.8 73.4 62% 96 29.9 0.0
15 15:15 SE 12 9.00 Fair CLR 89.6 73.4 59% 98 29.91 0.0
15 14:55 SE 14 9.00 Fair CLR 89.6 73.4 59% 98 29.91 0.0
15 14:35 SE 9 G 18 9.00 Fair CLR 87.8 73.4 62% 96 29.92 0.0
15 14:15 SE 13 9.00 Fair CLR 89.6 75.2 63% 100 29.93 0.0
15 13:55 S 12 9.00 Fair CLR 87.8 73.4 62% 96 29.94 0.0
15 13:35 SE 8 9.00 Fair CLR 87.8 73.4 62% 96 29.94 0.0
15 13:15 SE 8 10.00 Fair CLR 87.8 73.4 62% 96 29.95 0.0
15 12:55 SE 12 9.00 A Few Clouds FEW035 87.8 73.4 62% 96 29.95 0.0
15 12:35 SE 8 9.00 Fair CLR 87.8 73.4 62% 96 29.96 0.0
15 12:15 SE 10 10.00 Fair CLR 86 71.6 62% 92 29.96 0.0
15 11:55 SE 9 9.00 Fair CLR 86 71.6 62% 92 29.97 0.0
15 11:35 SE 12 9.00 Fair CLR 84.2 71.6 66% 90 29.97 0.0
15 11:15 SE 12 9.00 Fair CLR 84.2 69.8 62% 88 29.97 0.0
15 10:55 SE 10 G 16 9.00 Fair CLR 84.2 69.8 62% 88 29.98 0.0
15 10:35 SE 9 10.00 A Few Clouds FEW046 82.4 69.8 66% 86 29.98 0.0
15 10:15 SE 10 9.00 A Few Clouds FEW043 82.4 68 62% 85 29.99 0.0
15 09:55 SE 12 9.00 Partly Cloudy SCT043 SCT055 82.4 68 62% 85 29.99 0.0
15 09:35 SE 9 9.00 A Few Clouds FEW037 FEW050 80.6 68 66% 83 29.99 0.0
15 09:15 SE 8 G 14 9.00 A Few Clouds FEW037 FEW048 78.8 68 70% 81 30 0.0
15 08:55 SE 10 9.00 A Few Clouds FEW038 FEW048 77 66.2 69% 79 29.99 0.0
15 08:35 SE 12 9.00 Partly Cloudy SCT037 78.8 66.2 65% 81 29.99 0.0
15 08:15 SE 9 9.00 Mostly Cloudy BKN036 77 66.2 69% 79 29.99 0.0
15 07:55 SE 6 9.00 Overcast OVC036 75.2 66.2 74% 77 30 0.0
15 07:35 SE 7 9.00 Mostly Cloudy BKN038 BKN055 73.4 66.2 78% 30 0.0
15 07:15 SE 6 10.00 Mostly Cloudy BKN050 73.4 66.2 78% 30.01 0.0
15 06:55 E 7 10.00 Mostly Cloudy SCT050 BKN080 71.6 66.2 83% 30.01 0.0
15 06:35 SE 6 10.00 Mostly Cloudy BKN080 BKN090 71.6 66.2 83% 30 0.0
15 06:15 SE 3 10.00 Overcast OVC075 71.6 68 88% 30 0.0
15 05:55 Calm 9.00 Overcast OVC070 71.6 68 88% 30 0.0
15 05:35 Calm 10.00 Overcast OVC070 71.6 68 88% 30 0.0
15 05:15 E 5 10.00 Overcast OVC065 71.6 66.2 83% 29.99 0.0
15 04:55 Calm 10.00 Overcast OVC060 71.6 66.2 83% 29.99 0.0
15 04:35 E 6 10.00 Overcast OVC060 71.6 66.2 83% 29.99 0.0
15 04:15 Calm 10.00 Overcast OVC060 69.8 66.2 88% 29.99 0.0
15 03:55 Calm 10.00 Overcast OVC060 69.8 66.2 88% 30 0.0
15 03:35 Calm 10.00 Mostly Cloudy BKN060 69.8 66.2 88% 30 0.0
15 03:15 Calm 10.00 Partly Cloudy SCT060 69.8 66.2 88% 29.99 0.0
15 02:55 Calm 10.00 A Few Clouds FEW060 69.8 66.2 88% 29.99 0.0
15 02:35 Calm 10.00 A Few Clouds FEW060 69.8 66.2 88% 29.99 0.0
15 02:15 Calm 10.00 Fair CLR 71.6 66.2 83% 29.99 0.0
15 01:55 Calm 10.00 Fair CLR 71.6 66.2 83% 29.99 0.0
15 01:35 Calm 10.00 Fair CLR 71.6 66.2 83% 30 0.0
15 01:15 Calm 10.00 Fair CLR 71.6 68 88% 29.99 0.0
15 00:55 Calm 10.00 Fair CLR 71.6 68 88% 30 0.0
15 00:35 E 5 10.00 Fair CLR 71.6 68 88% 30 0.0
15 00:15 Calm 10.00 Fair CLR 73.4 68 83% 30.01 0.0
14 23:55 Calm 10.00 Fair CLR 71.6 68 88% 30.01 0.0
14 23:35 Calm 10.00 Fair CLR 71.6 68 88% 30.01 0.0
14 23:15 Calm 10.00 Fair CLR 75.2 68 78% 76 30.01 0.0
14 22:55 Calm 10.00 Fair CLR 75.2 68 78% 76 30 0.0
14 22:35 E 3 10.00 Fair CLR 75.2 68 78% 76 29.99 0.0
14 22:15 Calm 9.00 Fair CLR 77 69.8 79% 79 29.99 0.0
14 21:55 Calm 10.00 Fair CLR 77 69.8 79% 79 29.99 0.0
14 21:35 Calm 9.00 Fair CLR 77 69.8 79% 79 29.99 0.0
14 21:15 Calm 10.00 Fair CLR 77 69.8 79% 79 29.99 0.0
14 20:55 Calm 9.00 Fair CLR 80.6 69.8 70% 84 29.99 0.0
14 20:35 Calm 10.00 Fair CLR 80.6 69.8 70% 84 29.99 0.0
14 20:15 Calm 8.00 Fair CLR 82.4 69.8 66% 86 29.99 0.0
14 19:55 Calm 9.00 Fair CLR 82.4 69.8 66% 86 29.99 0.0
14 19:35 Calm 9.00 Fair CLR 84.2 69.8 62% 88 29.99 0.0
14 19:15 SE 7 9.00 Fair CLR 84.2 68 58% 87 29.99 0.0
14 18:55 SE 8 10.00 Fair CLR 86 68 55% 89 29.98 0.0
Date Time (cdt) Wind (mph) Vis. (mi.) Weather Sky Cond. Air Dwpt Max. Min. Relative Humidity Wind Chill (°F) Heat Index (°F) altimeter (in) sea level (mb) 1 hr 3 hr 6 hr
6 hour
Temperature (ºF) Pressure Precipitation (in)